#timestamp,LO_Frequency,Hit,StdDev 
1660867215.9,286047000.3,N
1660867235.7,286047000.7,N
1660867255.5,286046999.8,N
1660867275.4,286047000.0,N
1660867295.2,286046999.8,N
1660867315.0,286047002.3,N
1660867315.9,286047002.3,N
1660867335.8,286046999.7,N
1660867355.6,286047002.6,N
1660867375.5,286047002.5,N
1660867395.3,286047002.3,N
1660867415.1,286047001.5,N
1660867435.9,286047002.1,N
1660867455.7,286047001.9,N
1660867475.5,286047002.5,N
1660867495.4,286047001.4,N
1660867515.2,286047002.2,N
1660867535.1,286047002.6,N
1660867536.0,286047002.6,N
1660867555.8,286047002.5,N
1660867575.6,286047002.4,N
1660867595.5,286046999.8,N
1660867615.3,286047002.7,N
1660867635.2,286047002.6,N
1660867655.9,286047001.7,N
1660867675.7,286047004.2,Y
1660867695.6,286047002.7,P
1660867715.4,286047002.6,P
1660867735.2,286047004.1,P
1660867755.1,286047003.2,Y
1660867756.0,286047003.2,P
1660867775.8,286047000.5,N
1660867795.7,286047001.0,N
1660867815.5,286046999.0,N
1660867835.3,286047001.0,N
1660867855.2,286046998.4,N
1660867875.0,286046998.1,N
1660867875.9,286046998.1,N
1660867895.8,286046999.4,N
1660867915.6,286046998.3,N
1660867935.4,286046998.9,N
1660867955.3,286046998.7,N
1660867975.1,286047001.1,N
1660867995.8,286047001.2,N
1660868015.7,286046999.9,N
1660868035.5,286046999.7,N
1660868055.4,286047002.5,N
1660868075.2,286046999.8,N
1660868095.0,286047000.3,N
1660868095.9,286047000.3,N
1660868115.8,286047000.9,N
1660868135.6,286046998.8,N
1660868155.5,286047001.0,N
1660868175.3,286047000.6,N
1660868195.1,286047000.8,N
1660868215.9,286047000.3,N
1660868235.7,286046999.9,N
1660868255.6,286047000.0,N
1660868275.4,286047001.2,N
1660868295.2,286047001.0,N
1660868315.1,286047002.4,N
1660868316.0,286047002.4,N
1660868335.8,286047002.2,N
1660868355.7,286047001.5,N
1660868375.5,286047002.0,N
1660868395.3,286047001.8,N
1660868415.2,286047001.9,N
1660868435.0,286047001.9,N
1660868435.9,286047001.9,N
1660868455.7,286047001.5,N
1660868475.6,286047003.2,N
1660868495.4,286047004.2,Y
1660868515.3,286047002.2,P
1660868535.1,286047000.1,N
1660868555.8,286046998.3,N
1660868575.7,286046999.0,N
1660868595.5,286046998.9,N
1660868615.4,286046999.4,N
1660868635.2,286046999.5,N
1660868655.0,286046998.9,N
1660868655.9,286046998.9,N
1660868675.8,286046998.6,N
1660868695.6,286046998.6,N
1660868715.4,286047000.9,N
1660868735.3,286047000.4,N
1660868755.1,286047000.4,N
1660868775.9,286047000.4,N
1660868795.7,286047000.0,N
1660868815.5,286047000.8,N
1660868835.4,286046998.1,N
1660868855.2,286046998.5,N
1660868875.0,286047000.3,N
1660868875.9,286047000.3,N
1660868895.8,286047000.0,N
1660868915.6,286046999.7,N
1660868935.5,286047000.0,N
1660868955.3,286047000.9,N
1660868975.1,286047001.1,N
1660868995.9,286046998.2,N
1660869015.7,286047001.1,N
1660869035.5,286046998.5,N
1660869055.4,286047001.0,N
1660869075.2,286047001.0,N
1660869095.1,286047000.8,N
1660869096.0,286047000.8,N
1660869115.8,286046998.6,N
1660869135.6,286046998.9,N
1660869155.5,286046999.3,N
1660869175.3,286046998.8,N
1660869195.2,286047000.1,N
1660869215.9,286047001.0,N
1660869235.7,286046998.5,N
1660869255.6,286046998.6,N
1660869275.4,286046999.0,N
1660869295.2,286047001.1,N
1660869315.1,286046998.1,N
1660869316.0,286046998.1,N
1660869335.8,286047000.9,N
1660869355.7,286047000.8,N
1660869375.5,286047001.1,N
1660869395.3,286047000.6,N
1660869415.2,286046998.6,N
1660869435.0,286047000.8,N
1660869435.9,286047000.8,N
1660869455.8,286046998.6,N
1660869475.6,286047000.5,N
1660869495.4,286047000.4,N
1660869515.3,286047002.4,N
1660869535.1,286047002.6,N
1660869555.8,286046999.7,N
1660869575.7,286047001.0,N
1660869595.5,286047001.9,N
1660869615.4,286047002.2,N
1660869635.2,286047002.1,N
1660869655.0,286046999.9,N
1660869655.9,286046999.9,N
1660869675.8,286046999.9,N
1660869695.6,286047000.4,N
1660869715.5,286046998.1,N
1660869735.3,286047001.1,N
1660869755.1,286047000.4,N
1660869775.9,286047000.8,N
1660869795.7,286046998.2,N
1660869815.6,286046998.6,N
1660869835.4,286046999.3,N
1660869855.2,286046999.3,N
1660869875.1,286046999.3,N
1660869876.0,286046999.3,N
1660869895.8,286046998.8,N
1660869915.6,286047000.8,N
1660869935.5,286047000.7,N
1660869955.3,286046999.3,N
1660869975.2,286046998.9,N
1660869995.9,286046999.0,N
1660870015.7,286046998.9,N
1660870035.6,286046999.3,N
1660870055.4,286046999.1,N
1660870075.3,286046998.4,N
1660870095.1,286046999.3,N
1660870096.0,286046999.3,N
1660870115.8,286047001.0,N
1660870135.7,286047000.4,N
1660870155.5,286047000.2,N
1660870175.3,286047000.9,N
1660870195.2,286047001.0,N
1660870215.0,286047000.8,N
1660870215.9,286047000.8,N
1660870235.8,286047000.5,N
1660870255.6,286047000.0,N
1660870275.4,286047002.8,Y
1660870295.3,286046999.7,P
1660870315.1,286047002.7,P
1660870335.8,286047002.7,N
1660870355.7,286047000.3,N
1660870375.5,286047001.0,N
1660870395.4,286046998.2,N
1660870415.2,286047000.8,N
1660870435.0,286046999.7,N
1660870435.9,286046999.7,N
1660870455.8,286047002.2,N
1660870475.6,286047002.1,N
1660870495.4,286047002.0,N
1660870515.3,286047003.7,N
1660870535.1,286047003.6,N
1660870555.9,286047003.5,N
1660870575.7,286047003.6,N
1660870595.5,286047001.4,N
1660870615.4,286047003.9,N
1660870635.2,286047001.7,N
1660870655.0,286047003.7,N
1660870656.0,286047003.7,N
1660870675.8,286047001.5,N
1660870695.6,286047001.5,N
1660870715.5,286047001.3,N
1660870735.3,286047004.2,N
1660870755.1,286047003.5,N
1660870775.9,286047004.0,N
1660870795.7,286047002.1,N
